Location: Newark
(16.3678°N, 77.8722°E)
Time: 16:25:09
(UTC+00:00)

deb Explorer IX - All Passes

Search period start: 14 December 2019 00:00
Search period end: 24 December 2019 00:00
Orbit: 546 x 1104 km, 38.8° (Epoch: 14 December)

Date Brightness Start Highest point End Pass type
(mag) Time Alt. Az. Time Alt. Az. Time Alt. Az.
14 Dec - 06:11:58 10° S 06:15:13 21° SE 06:18:42 10° E daylight
14 Dec - 07:57:34 10° WSW 08:01:50 44° NNW 08:06:45 10° NE daylight
14 Dec - 09:47:54 10° NW 09:49:55 12° NNW 09:52:01 10° N daylight
14 Dec - 13:25:27 10° N 13:28:43 14° NNE 13:32:07 10° NE visible
14 Dec - 15:10:44 10° NW 15:17:14 41° NNE 15:24:04 10° E visible
14 Dec - 16:57:50 10° WNW 17:04:51 53° SW 17:11:52 10° SE night (unlit)
15 Dec - 05:50:01 10° S 05:53:13 22° SE 05:56:39 10° E daylight
15 Dec - 07:35:43 10° WSW 07:39:52 42° NNW 07:44:34 10° NE daylight
15 Dec - 09:26:25 10° NW 09:27:54 11° NNW 09:29:27 10° N daylight
15 Dec - 13:03:30 10° N 13:06:36 14° NNE 13:09:51 10° NE visible
15 Dec - 14:48:38 10° NW 14:55:02 41° NNE 15:01:52 10° ESE visible
15 Dec - 16:35:42 10° WNW 16:42:37 52° SW 16:49:40 10° SSE night (unlit)
16 Dec - 05:28:02 10° S 05:31:15 22° SE 05:34:38 10° E daylight
16 Dec - 07:13:52 10° WSW 07:17:53 40° NNW 07:22:23 10° NE daylight
16 Dec - 09:05:14 10° NNW 09:05:54 10° NNW 09:06:35 10° N daylight
16 Dec - 12:41:34 10° N 12:44:30 13° NNE 12:47:34 10° NE visible
16 Dec - 14:26:33 10° NW 14:32:51 42° NE 14:39:39 10° ESE visible
16 Dec - 16:13:35 10° WNW 16:20:24 51° SW 16:27:27 10° SSE visible
17 Dec - 05:06:02 10° S 05:09:16 22° SE 05:12:38 10° E daylight
17 Dec - 06:52:00 10° WSW 06:55:55 37° NNW 07:00:15 10° NE daylight
17 Dec - 12:19:39 10° N 12:22:24 13° NNE 12:25:17 10° NE daylight
17 Dec - 14:04:29 10° NW 14:10:40 42° NE 14:17:25 10° ESE visible
17 Dec - 15:51:29 10° WNW 15:58:10 49° SW 16:05:12 10° SSE visible
18 Dec - 04:44:01 10° SSW 04:47:17 23° SE 04:50:38 10° E daylight
18 Dec - 06:30:07 10° W 06:33:56 35° NNW 06:38:06 10° NE daylight
18 Dec - 11:57:46 10° N 12:00:19 13° NNE 12:02:58 10° NE daylight
18 Dec - 13:42:26 10° NW 13:48:29 43° NE 13:55:11 10° ESE visible
18 Dec - 15:29:24 10° WNW 15:35:57 48° SW 15:42:56 10° SSE visible
19 Dec - 04:21:59 10° SSW 04:25:19 24° SE 04:28:41 10° E daylight
19 Dec - 06:08:14 10° W 06:11:59 34° NNW 06:16:00 10° NNE daylight
19 Dec - 11:35:54 10° N 11:38:13 12° NNE 11:40:38 10° NE daylight
19 Dec - 13:20:24 10° NW 13:26:18 43° NE 13:32:56 10° ESE visible
19 Dec - 15:07:20 10° WNW 15:13:44 46° SW 15:20:39 10° SSE visible
20 Dec - 03:59:56 10° SSW 04:03:20 25° SE 04:06:44 10° E daylight
20 Dec - 05:46:20 10° W 05:50:01 32° NNW 05:53:54 10° NNE daylight
20 Dec - 11:14:05 10° N 11:16:08 12° NNE 11:18:17 10° NE daylight
20 Dec - 12:58:22 10° NW 13:04:08 43° NE 13:10:40 10° ESE visible
20 Dec - 14:45:18 10° WNW 14:51:31 45° SW 14:58:21 10° SSE visible
21 Dec - 03:37:51 10° SSW 03:41:22 26° SE 03:44:48 10° E daylight
21 Dec - 05:24:25 10° W 05:28:03 31° NNW 05:31:48 10° NNE daylight
21 Dec - 10:52:17 10° N 10:54:04 11° NNE 10:55:55 10° NE daylight
21 Dec - 12:36:22 10° NW 12:41:59 43° NE 12:48:24 10° ESE visible
21 Dec - 14:23:16 10° WNW 14:29:19 43° SW 14:36:02 10° SSE visible
22 Dec - 03:15:45 10° SSW 03:19:23 27° SE 03:22:53 10° E daylight
22 Dec - 05:02:29 10° W 05:06:05 29° NNW 05:09:45 10° NNE daylight
22 Dec - 10:30:32 10° N 10:32:00 11° NNE 10:33:30 10° NE daylight
22 Dec - 12:14:22 10° NW 12:19:50 43° NE 12:26:08 10° ESE daylight
22 Dec - 14:01:16 10° WNW 14:07:08 42° SW 14:13:42 10° SSE visible
23 Dec - 02:53:37 10° SSW 02:57:24 29° SE 03:00:59 10° E daylight
23 Dec - 04:40:32 10° W 04:44:06 28° NNW 04:47:42 10° NNE daylight
23 Dec - 10:08:53 10° NNE 10:09:56 11° NNE 10:11:02 10° NE daylight
23 Dec - 11:52:23 10° NW 11:57:42 44° NE 12:03:51 10° ESE daylight
23 Dec - 13:39:16 10° WNW 13:44:57 40° SW 13:51:21 10° SSE visible
